DEIMOS-2

Last updated on Sun Dec 21 2025 00:02:36 GMT+0000 (Coordinated Universal Time)

1 40013U 14033D 25354.62263617 .00002201 00000+0 21696-3 0 9992 2 40013 97.6069 230.1624 0001476 104.9603 255.1780 14.93007577611072
UTC large
Height (km)
Speed (km/s)
/
Latitude / Longitude
Inclination (degrees)
Orbital Period (minutes)
Azimuth
Elevation
Range (km)
Doppler Factor

Next 0 passes for location: London (51.5072 / 0.1276)

Sorry there are no passes over London.